Location: Newark
(46.2031°N, 3.4731°E)
Time: 13:26:40
(UTC+00:00)

OTV 5 (USA 277) - Pass Details

Date: 01 October 2019
Orbit: 310 x 324 km, 54.5° (Epoch: 08 October)

Event Time Altitude Azimuth Distance (km) Brightness Sun altitude
Exits shadow 05:05:43 - 213° (SSW) 2,050 ? -7.5°
Reaches altitude 10° 05:07:45 10° 203° (SSW) 1,233 ? -7.1°
Maximum altitude 05:10:14 31° 138° (SE) 591 ? -6.7°
Drops below altitude 10° 05:12:44 10° 72° (ENE) 1,237 ? -6.2°
Sets 05:14:48 0° 62° (ENE) 2,071 ? -5.9°
